GW5487 Weather Reports


time (UTC)temp
C
wind
direction
speed
KPH
gust
KPH
rain 1hr
cm
rain 24hr
cm
rain mn
cm
humidity
%
barometer
mb
20260905091746 22 237 3.2 4.8 0.00 0.00 0.00 75 1009.3
20260905091241 22 248 1.6 1.6 0.00 0.00 0.00 75 1009.2
20260905090740 22 240 1.6 1.6 0.00 0.00 0.00 74 1009.3
20260905090236 22 260 1.6 1.6 0.00 0.00 0.00 74 1009.3
20260905085735 22 266 4.8 4.8 0.00 0.00 0.00 74 1009.4
20260905085230 22 245 0.0 0.0 0.00 0.00 0.00 75 1009.5
20260905084725 22 257 1.6 3.2 0.00 0.00 0.00 75 1009.4
20260905084224 22 252 0.0 1.6 0.00 0.00 0.00 75 1009.3
20260905083720 22 249 0.0 0.0 0.00 0.00 0.00 75 1009.2
20260905083215 22 249 1.6 1.6 0.00 0.00 0.00 76 1009.3
20260905082711 22 248 0.0 0.0 0.00 0.00 0.00 75 1009.3
20260905082207 23 250 1.6 1.6 0.00 0.00 0.00 74 1009.2
20260905081706 22 250 0.0 1.6 0.00 0.00 0.00 75 1009.4
20260905081201 23 251 0.0 0.0 0.00 0.00 0.00 74 1009.3
20260905080701 23 252 1.6 1.6 0.00 0.00 0.00 74 1009.6
20260905080200 23 253 3.2 3.2 0.00 0.00 0.00 74 1009.6
20260905075700 23 250 1.6 1.6 0.00 0.00 0.00 74 1009.4
20260905075159 23 246 1.6 3.2 0.00 0.00 0.00 74 1009.2
20260905074658 23 298 3.2 3.2 0.00 0.00 0.00 74 1009.4
20260905074154 23 245 1.6 3.2 0.00 0.00 0.00 74 1009.4
20260905073650 23 260 1.6 3.2 0.00 0.00 0.00 74 1009.3
20260905073145 23 234 0.0 0.0 0.00 0.00 0.00 74 1009.4
20260905072644 23 237 3.2 3.2 0.00 0.00 0.00 74 1009.4
20260905072140 23 246 1.6 1.6 0.00 0.00 0.00 75 1009.5
20260905071636 23 235 0.0 0.0 0.00 0.00 0.00 74 1009.3
20260905071131 23 248 1.6 1.6 0.00 0.00 0.00 74 1009.6
20260905070626 23 254 1.6 1.6 0.00 0.00 0.00 74 1009.6
20260905070123 23 233 1.6 1.6 0.00 0.00 0.00 75 1009.5
20260905065620 23 228 3.2 3.2 0.00 0.00 0.00 74 1009.3
20260905065115 23 223 1.6 1.6 0.00 0.00 0.00 74 1009.6
20260905064610 23 279 3.2 3.2 0.00 0.00 0.00 74 1009.7
20260905064106 23 215 4.8 4.8 0.00 0.00 0.00 74 1009.6
20260905063600 23 259 1.6 1.6 0.00 0.00 0.00 74 1009.6
20260905063056 23 240 1.6 3.2 0.00 0.00 0.00 73 1009.5
20260905062551 23 223 3.2 3.2 0.00 0.00 0.00 73 1009.6
20260905062050 23 238 1.6 1.6 0.00 0.00 0.00 73 1009.7
20260905061545 23 230 0.0 0.0 0.00 0.00 0.00 73 1009.6
20260905061044 23 356 3.2 3.2 0.00 0.00 0.00 73 1009.6
20260905060540 23 263 1.6 1.6 0.00 0.00 0.00 72 1009.5
20260905060036 23 263 4.8 8.0 0.00 0.00 0.00 73 1009.5
20260905055535 23 274 4.8 4.8 0.00 0.00 0.00 72 1009.6
20260905055030 23 332 4.8 4.8 0.00 0.00 0.00 72 1009.8
20260905054525 23 341 1.6 3.2 0.00 0.00 0.00 72 1009.8
20260905054021 23 244 0.0 0.0 0.00 0.00 0.00 72 1009.8
20260905053520 23 334 3.2 3.2 0.00 0.00 0.00 72 1009.8
20260905053016 23 227 0.0 0.0 0.00 0.00 0.00 73 1010.0
20260905052516 23 239 0.0 0.0 0.00 0.00 0.00 73 1010.1
20260905052016 23 239 1.6 1.6 0.00 0.00 0.00 73 1010.1
20260905051511 23 291 1.6 1.6 0.00 0.00 0.00 73 1010.0
20260905051009 23 240 0.0 0.0 0.00 0.00 0.00 73 1010.1
20260905050504 24 227 0.0 1.6 0.00 0.00 0.00 73 1010.2
20260905050000 24 235 0.0 0.0 0.00 0.00 0.00 73 1010.1
20260905045455 24 235 0.0 1.6 0.00 0.00 0.00 72 1010.1
20260905044950 24 232 1.6 1.6 0.00 0.00 0.00 71 1010.2
20260905044445 24 246 1.6 1.6 0.00 0.00 0.00 70 1010.2
20260905043939 25 253 1.6 1.6 0.00 0.00 0.00 70 1010.3
20260905043438 25 294 3.2 4.8 0.00 0.00 0.00 69 1010.3
20260905042933 25 236 0.0 1.6 0.00 0.00 0.00 69 1010.4
20260905042432 25 225 0.0 0.0 0.00 0.00 0.00 69 1010.5
20260905041928 25 230 1.6 1.6 0.00 0.00 0.00 69 1010.5
20260905041424 25 268 3.2 3.2 0.00 0.00 0.00 68 1010.5
20260905040925 25 218 1.6 1.6 0.00 0.00 0.00 69 1010.5
20260905040424 25 223 1.6 3.2 0.00 0.00 0.00 70 1010.4
20260905035923 25 290 3.2 3.2 0.00 0.00 0.00 70 1010.7
20260905035419 25 232 0.0 0.0 0.00 0.00 0.00 70 1010.5
20260905034915 25 235 1.6 1.6 0.00 0.00 0.00 70 1010.6
20260905034410 25 248 1.6 3.2 0.00 0.00 0.00 70 1010.5
20260905033909 25 317 4.8 4.8 0.00 0.00 0.00 71 1010.2
20260905033404 25 240 1.6 1.6 0.00 0.00 0.00 72 1010.4
20260905032904 25 248 0.0 0.0 0.00 0.00 0.00 71 1010.3
20260905032359 25 245 0.0 0.0 0.00 0.00 0.00 71 1010.3
20260905031854 25 247 1.6 1.6 0.00 0.00 0.00 71 1010.4
20260905031350 25 234 1.6 1.6 0.00 0.00 0.00 72 1010.3
20260905030845 25 227 0.0 0.0 0.00 0.00 0.00 71 1010.5
20260905030341 25 225 0.0 0.0 0.00 0.00 0.00 72 1010.4
20260905025840 25 225 1.6 1.6 0.00 0.00 0.00 72 1010.3
20260905025335 25 204 0.0 0.0 0.00 0.00 0.00 72 1010.2
20260905024832 25 226 0.0 0.0 0.00 0.00 0.00 72 1010.2
20260905024327 26 239 0.0 0.0 0.00 0.00 0.00 71 1010.2
20260905023822 26 211 0.0 0.0 0.00 0.00 0.00 71 1010.2
20260905023319 26 229 1.6 1.6 0.00 0.00 0.00 71 1010.1
20260905022817 26 171 0.0 1.6 0.00 0.00 0.00 70 1010.3
20260905022313 26 236 1.6 1.6 0.00 0.00 0.00 71 1010.3
20260905021813 26 223 1.6 1.6 0.00 0.00 0.00 70 1010.3
20260905021308 26 235 1.6 1.6 0.00 0.00 0.00 70 1010.2
20260905020807 26 227 3.2 3.2 0.00 0.00 0.00 70 1010.3
20260905020303 26 242 1.6 1.6 0.00 0.00 0.00 69 1010.4
20260905015801 26 182 1.6 1.6 0.00 0.00 0.00 69 1010.3
20260905015256 26 263 1.6 3.2 0.00 0.00 0.00 70 1010.3
20260905014754 26 264 1.6 1.6 0.00 0.00 0.00 70 1010.3
20260905014251 26 215 0.0 0.0 0.00 0.00 0.00 71 1010.2
20260905013746 26 195 0.0 0.0 0.00 0.00 0.00 70 1010.2
20260905013242 26 224 0.0 0.0 0.00 0.00 0.00 72 1010.2
20260905012737 26 225 1.6 1.6 0.00 0.00 0.00 73 1010.4
20260905012233 26 272 3.2 3.2 0.00 0.00 0.00 71 1010.5
20260905011730 26 326 1.6 1.6 0.00 0.00 0.00 72 1010.4
20260905011220 26 214 0.0 0.0 0.00 0.00 0.00 73 1010.4
20260905010719 26 279 1.6 1.6 0.00 0.00 0.00 73 1010.5
20260905010214 26 231 1.6 1.6 0.00 0.00 0.00 74 1010.3
20260905005711 27 231 1.6 1.6 0.00 0.00 0.00 73 1010.3
20260905005206 27 231 0.0 1.6 0.00 0.00 0.00 73 1010.2
20260905004701 27 226 1.6 3.2 0.00 0.00 0.00 73 1010.3
20260905004155 27 298 4.8 4.8 0.00 0.00 0.00 73 1010.0
20260905003651 27 297 4.8 4.8 0.00 0.00 0.00 73 1009.9
20260905003147 27 280 1.6 3.2 0.00 0.00 0.00 74 1010.0
20260905002643 27 246 0.0 0.0 0.00 0.00 0.00 74 1009.7
20260905002142 27 236 3.2 3.2 0.00 0.00 0.00 73 1009.7
20260905001638 27 266 1.6 3.2 0.00 0.00 0.00 73 1009.6
20260905001137 27 231 0.0 1.6 0.00 0.00 0.00 73 1009.7
20260905000633 27 239 3.2 3.2 0.00 0.00 0.00 73 1009.9
20260905000129 27 334 1.6 3.2 0.00 0.00 0.00 73 1009.9
20260904235628 27 237 1.6 3.2 0.00 0.00 0.00 73 1009.9
20260904235127 27 240 0.0 1.6 0.00 0.00 0.00 75 1009.8
20260904234623 27 240 0.0 0.0 0.00 0.00 0.00 75 1010.0
20260904234119 27 240 0.0 0.0 0.00 0.00 0.00 73 1009.9
20260904233614 27 240 0.0 1.6 0.00 0.00 0.00 72 1010.0
20260904233110 27 257 1.6 3.2 0.00 0.00 0.00 72 1010.2
20260904232606 27 246 1.6 1.6 0.00 0.00 0.00 73 1010.2
20260904232102 27 237 0.0 0.0 0.00 0.00 0.00 72 1010.1
20260904231558 27 233 0.0 1.6 0.00 0.00 0.00 72 1010.0
20260904231058 27 236 1.6 1.6 0.00 0.00 0.00 71 1010.1
20260904230557 27 228 1.6 1.6 0.00 0.00 0.00 71 1010.1
20260904230053 27 237 1.6 1.6 0.00 0.00 0.00 71 1009.9
20260904225551 27 250 1.6 3.2 0.00 0.00 0.00 70 1010.0
20260904225051 28 250 3.2 3.2 0.00 0.00 0.00 70 1010.2
20260904224546 28 225 3.2 3.2 0.00 0.00 0.00 69 1010.0
20260904224046 28 251 3.2 3.2 0.00 0.00 0.00 69 1010.1
20260904223544 28 244 3.2 4.8 0.00 0.00 0.00 68 1010.2
20260904223041 28 269 8.0 8.0 0.00 0.00 0.00 67 1009.9
20260904222536 28 301 6.4 9.7 0.00 0.00 0.00 67 1010.2
20260904222031 28 264 4.8 8.0 0.00 0.00 0.00 67 1009.9
20260904221527 28 253 4.8 4.8 0.00 0.00 0.00 67 1009.9
20260904221026 28 288 4.8 4.8 0.00 0.00 0.00 67 1009.8
20260904220526 28 242 4.8 4.8 0.00 0.00 0.00 65 1010.0
20260904220022 28 326 8.0 9.7 0.00 0.00 0.00 66 1010.1
20260904215522 28 286 4.8 8.0 0.00 0.00 0.00 66 1009.8
20260904215017 28 309 4.8 4.8 0.00 0.00 0.00 66 1009.9
20260904214513 28 253 6.4 8.0 0.00 0.00 0.00 66 1010.1
20260904214008 28 262 8.0 11.3 0.00 0.00 0.00 65 1010.0
20260904213506 29 252 6.4 11.3 0.00 0.00 0.00 65 1010.1
20260904213003 29 189 4.8 4.8 0.00 0.00 0.00 65 1010.1
20260904212503 29 239 1.6 3.2 0.00 0.00 0.00 65 1009.8
20260904211958 30 244 8.0 9.7 0.00 0.00 0.00 63 1009.8
20260904211458 30 254 4.8 4.8 0.00 0.00 0.00 64 1009.8
20260904210954 30 297 11.3 14.5 0.00 0.00 0.00 62 1009.9
20260904210452 30 269 6.4 8.0 0.00 0.00 0.00 64 1010.0
20260904205948 30 245 6.4 8.0 0.00 0.00 0.00 63 1009.9
20260904205443 30 273 6.4 8.0 0.00 0.00 0.00 64 1009.9
20260904204941 30 235 4.8 8.0 0.00 0.00 0.00 65 1010.0
20260904204436 30 215 4.8 4.8 0.00 0.00 0.00 64 1010.1
20260904203932 30 225 1.6 3.2 0.00 0.00 0.00 65 1010.1
20260904203428 29 207 6.4 8.0 0.00 0.00 0.00 66 1009.9
20260904202924 30 274 11.3 16.1 0.00 0.00 0.00 63 1010.0
20260904202420 30 331 6.4 12.9 0.00 0.00 0.00 63 1010.0
20260904201916 30 203 1.6 3.2 0.00 0.00 0.00 65 1010.2
20260904201411 30 238 14.5 17.7 0.00 0.00 0.00 64 1010.0
20260904200906 30 330 8.0 9.7 0.00 0.00 0.00 65 1010.3
20260904200404 30 304 11.3 14.5 0.00 0.00 0.00 63 1010.2
20260904195859 30 287 9.7 11.3 0.00 0.00 0.00 65 1010.5
20260904195358 30 292 3.2 4.8 0.00 0.00 0.00 65 1010.3
20260904194852 30 323 8.0 14.5 0.00 0.00 0.00 64 1010.5
20260904194352 30 242 11.3 12.9 0.00 0.00 0.00 64 1010.3
20260904193847 30 271 8.0 9.7 0.00 0.00 0.00 65 1010.8
20260904193342 30 309 16.1 20.9 0.00 0.00 0.00 65 1010.8
20260904192838 29 341 9.7 16.1 0.00 0.00 0.00 66 1011.0
20260904192333 29 224 3.2 3.2 0.00 0.00 0.00 66 1011.0
20260904191830 30 273 6.4 8.0 0.00 0.00 0.00 65 1010.8
20260904191326 28 291 8.0 11.3 0.00 0.00 0.00 66 1010.7
20260904190822 28 277 8.0 11.3 0.00 0.00 0.00 66 1010.9
20260904190318 29 263 9.7 11.3 0.00 0.00 0.00 65 1010.9
20260904185814 30 196 1.6 1.6 0.00 0.00 0.00 64 1010.8
20260904185309 30 286 6.4 8.0 0.00 0.00 0.00 63 1010.8
20260904184808 30 259 9.7 12.9 0.00 0.00 0.00 63 1010.8
20260904184304 30 263 8.0 11.3 0.00 0.00 0.00 63 1010.9
20260904183800 30 308 14.5 17.7 0.00 0.00 0.00 62 1010.9
20260904183259 30 325 8.0 11.3 0.00 0.00 0.00 61 1010.9
20260904182755 30 29 11.3 16.1 0.00 0.00 0.00 62 1010.7
20260904182250 30 288 9.7 11.3 0.00 0.00 0.00 60 1010.9
20260904181746 30 260 6.4 8.0 0.00 0.00 0.00 61 1011.0
20260904181245 30 302 11.3 11.3 0.00 0.00 0.00 60 1011.0
20260904180741 30 303 9.7 11.3 0.00 0.00 0.00 61 1011.0
20260904180236 30 295 9.7 11.3 0.00 0.00 0.00 61 1011.0
20260904175735 30 301 6.4 9.7 0.00 0.00 0.00 62 1010.9
20260904175233 30 244 4.8 8.0 0.00 0.00 0.00 59 1011.0
20260904174728 30 281 4.8 9.7 0.00 0.00 0.00 60 1011.1
20260904174224 30 317 4.8 8.0 0.00 0.00 0.00 58 1011.0
20260904173720 30 288 3.2 3.2 0.00 0.00 0.00 59 1011.2
20260904173215 30 249 4.8 8.0 0.00 0.00 0.00 61 1011.1
20260904172712 30 316 8.0 11.3 0.00 0.00 0.00 61 1010.9
20260904172210 30 182 0.0 1.6 0.00 0.00 0.00 60 1011.0
20260904171706 30 256 1.6 3.2 0.00 0.00 0.00 60 1011.1
20260904171201 30 295 4.8 9.7 0.00 0.00 0.00 61 1011.0
20260904170657 30 57 3.2 4.8 0.00 0.00 0.00 61 1011.2
20260904170153 30 233 3.2 3.2 0.00 0.00 0.00 60 1011.1
20260904165651 30 320 4.8 11.3 0.00 0.00 0.00 59 1011.0
20260904165151 30 280 9.7 14.5 0.00 0.00 0.00 59 1011.0
20260904164646 30 86 1.6 3.2 0.00 0.00 0.00 58 1011.1
20260904164141 31 236 3.2 3.2 0.00 0.00 0.00 59 1010.9
20260904163636 30 206 3.2 4.8 0.00 0.00 0.00 61 1010.8
20260904163132 30 351 8.0 12.9 0.00 0.00 0.00 58 1011.0
20260904162626 30 106 8.0 11.3 0.00 0.00 0.00 58 1011.2
20260904162126 30 72 12.9 20.9 0.00 0.00 0.00 57 1011.2
20260904161621 29 295 4.8 4.8 0.00 0.00 0.00 61 1011.3
20260904161116 30 291 14.5 17.7 0.00 0.00 0.00 62 1011.2
20260904160612 29 280 6.4 9.7 0.00 0.00 0.00 62 1011.2
20260904160108 29 301 6.4 8.0 0.00 0.00 0.00 64 1011.2
20260904155608 30 191 6.4 9.7 0.00 0.00 0.00 63 1011.2
20260904155102 29 7 8.0 11.3 0.00 0.00 0.00 63 1011.4
20260904154555 30 288 12.9 14.5 0.00 0.00 0.00 62 1011.2
20260904154050 29 345 6.4 9.7 0.00 0.00 0.00 64 1011.4
20260904153549 29 82 3.2 4.8 0.00 0.00 0.00 65 1011.4
20260904153046 30 246 8.0 9.7 0.00 0.00 0.00 64 1011.6
20260904152542 29 144 3.2 4.8 0.00 0.00 0.00 65 1011.4
20260904152037 28 318 8.0 11.3 0.00 0.00 0.00 66 1011.4
20260904151533 28 323 9.7 12.9 0.00 0.00 0.00 66 1011.7
20260904151026 29 262 8.0 11.3 0.00 0.00 0.00 66 1011.6
20260904150526 28 277 8.0 12.9 0.00 0.00 0.00 68 1011.5
20260904150021 28 312 8.0 11.3 0.00 0.00 0.00 67 1011.4
20260904145515 28 305 8.0 12.9 0.00 0.00 0.00 69 1011.5
20260904145010 28 230 4.8 4.8 0.00 0.00 0.00 69 1011.6
20260904144507 28 341 4.8 4.8 0.00 0.00 0.00 69 1011.5
20260904144002 28 232 8.0 8.0 0.00 0.00 0.00 71 1011.4
20260904143457 28 345 9.7 11.3 0.00 0.00 0.00 70 1011.4
20260904142954 28 224 3.2 4.8 0.00 0.00 0.00 70 1011.6
20260904142450 28 281 9.7 14.5 0.00 0.00 0.00 71 1011.5
20260904141950 28 351 3.2 4.8 0.00 0.00 0.00 74 1011.5
20260904141445 27 256 11.3 12.9 0.00 0.00 0.00 74 1011.4
20260904140941 28 221 8.0 11.3 0.00 0.00 0.00 74 1011.5
20260904140441 27 37 4.8 4.8 0.00 0.00 0.00 75 1011.4
20260904135940 28 321 9.7 12.9 0.00 0.00 0.00 76 1011.4
20260904135440 27 321 9.7 14.5 0.00 0.00 0.00 76 1011.3
20260904134937 27 324 16.1 17.7 0.00 0.00 0.00 77 1011.2
20260904134436 27 266 4.8 4.8 0.00 0.00 0.00 79 1011.3
20260904133931 27 306 11.3 14.5 0.00 0.00 0.00 80 1011.4
20260904133426 27 297 6.4 8.0 0.00 0.00 0.00 80 1011.3
20260904132921 26 279 11.3 16.1 0.00 0.00 0.00 80 1011.1
20260904132416 26 269 12.9 14.5 0.00 0.00 0.00 80 1011.1
20260904131916 26 289 4.8 4.8 0.00 0.00 0.00 82 1011.1
20260904131411 26 306 12.9 14.5 0.00 0.00 0.00 82 1011.0
20260904130907 26 281 4.8 4.8 0.00 0.00 0.00 84 1011.0
20260904130405 26 270 8.0 11.3 0.00 0.00 0.00 84 1011.2
20260904125901 26 266 3.2 4.8 0.00 0.00 0.00 85 1011.2
20260904125357 26 324 8.0 9.7 0.00 0.00 0.00 84 1011.0
20260904124856 26 261 8.0 9.7 0.00 0.00 0.00 85 1011.1
20260904124353 26 212 9.7 12.9 0.00 0.00 0.00 86 1011.0
20260904123848 25 306 9.7 12.9 0.00 0.00 0.00 86 1010.8
20260904123343 25 205 3.2 3.2 0.00 0.00 0.00 86 1011.0
20260904122839 25 245 8.0 12.9 0.00 0.00 0.00 87 1011.1
20260904122339 25 234 1.6 3.2 0.00 0.00 0.00 87 1011.2
20260904121839 25 268 4.8 4.8 0.00 0.00 0.00 88 1011.0
20260904121335 25 246 4.8 8.0 0.00 0.00 0.00 89 1011.1
20260904120832 25 299 11.3 12.9 0.00 0.00 0.00 89 1011.1
20260904120327 25 320 6.4 9.7 0.00 0.00 0.00 90 1010.9
20260904115822 24 258 4.8 4.8 0.00 0.00 0.00 92 1011.2
20260904115317 24 235 3.2 3.2 0.00 0.00 0.00 92 1011.1
20260904114817 24 229 1.6 1.6 0.00 0.00 0.00 92 1011.1
20260904114312 24 288 4.8 8.0 0.00 0.00 0.00 92 1010.9
20260904113807 24 243 3.2 3.2 0.00 0.00 0.00 92 1010.9
20260904113306 24 276 6.4 11.3 0.00 0.00 0.00 92 1010.9
20260904112801 23 288 3.2 3.2 0.00 0.00 0.00 93 1010.7
20260904112256 23 235 4.8 8.0 0.00 0.00 0.00 93 1010.5
20260904111752 23 261 1.6 3.2 0.00 0.00 0.00 93 1010.8
20260904111248 23 204 0.0 1.6 0.00 0.00 0.00 94 1010.6
20260904110743 23 243 1.6 3.2 0.00 0.00 0.00 93 1010.7
20260904110242 23 246 3.2 3.2 0.00 0.00 0.00 93 1010.3
20260904105737 23 237 1.6 1.6 0.00 0.00 0.00 93 1010.5
20260904105232 23 248 1.6 1.6 0.00 0.00 0.00 93 1010.3
20260904104728 23 265 4.8 4.8 0.00 0.00 0.00 93 1010.3
20260904104223 23 209 1.6 1.6 0.00 0.00 0.00 93 1010.4
20260904103720 23 214 1.6 1.6 0.00 0.00 0.00 93 1010.3
20260904103214 23 236 3.2 4.8 0.00 0.00 0.00 92 1010.0
20260904102710 23 236 1.6 1.6 0.00 0.00 0.00 92 1010.2
20260904102205 23 224 0.0 0.0 0.00 0.00 0.00 91 1010.3
20260904101702 24 221 0.0 0.0 0.00 0.00 0.00 91 1010.1
20260904101157 24 229 1.6 3.2 0.00 0.00 0.00 91 1010.4
20260904100653 24 228 0.0 1.6 0.00 0.00 0.00 90 1010.2
20260904100148 24 266 4.8 4.8 0.00 0.00 0.00 90 1010.1
20260904095643 25 270 3.2 3.2 0.00 0.00 0.00 89 1010.2
20260904095138 25 297 6.4 9.7 0.00 0.00 0.00 89 1010.3
20260904094633 25 327 4.8 4.8 0.00 0.00 0.00 89 1010.2
20260904094132 25 276 4.8 4.8 0.00 0.00 0.00 89 1010.3
20260904093630 25 331 11.3 12.9 0.00 0.00 0.00 88 1010.0
20260904093129 25 238 3.2 4.8 0.00 0.00 0.00 88 1010.2
20260904092625 25 238 1.6 3.2 0.00 0.00 0.00 88 1010.2
20260904092121 25 325 6.4 8.0 0.00 0.00 0.00 87 1010.0